Regional Weather Roundup
Issued by NWS Newport/Morehead, NC

Current Version | Previous Version | Graphics & Text | Print | Product List | Glossary Off
Versions: 1 2 3 4 5 6 7 8 9 10 11 12 13 14 15 16 17 18 19 20 21 22 23 24 25 26 27 28 29 30 31 32 33 34 35 36 37 38 39 40 41 42 43 44 45 46 47 48 49 50

000
ASUS42 KMHX 142322
RWRMHX
WEATHER ROUNDUP FOR EASTERN NORTH CAROLINA
NATIONAL WEATHER SERVICE NEWPORT/MOREHEAD CITY NC
700 PM EDT SUN SEP 14 2014

NOTE: "FAIR" INDICATES FEW OR NO CLOUDS BELOW 12,000 FEET
WITH NO SIGNIFICANT WEATHER AND/OR OBSTRUCTIONS TO VISIBILITY

NCZ015>017-031-032-045>047-102-103-150000-
NORTH COAST

CITY           SKY/WX    TMP DP  RH WIND       PRES   REMARKS
EDENTON        CLOUDY    69  62  77 NE5       30.21R
ELIZABETH CITY CLOUDY    68  56  65 NE8       30.21S
KITTY HAWK     CLOUDY    68  57  68 N7        30.20S
MANTEO         MOCLDY    67  57  70 N10       30.21S

$$

NCZ045>047-081-094-103-104-150000-
CENTRAL COAST

CITY           SKY/WX    TMP DP  RH WIND       PRES   REMARKS
FRISCO         CLOUDY    69  65  86 VRB7G18   30.18F
SWANQUARTER      N/A     70 N/A N/A NE6       30.15F

$$

NCZ095-097-098-100-101-150000-
SOUTHERN COAST

CITY           SKY/WX    TMP DP  RH WIND       PRES   REMARKS
BEAUFORT       CLOUDY    73  66  78 NE8       30.18S
CEDAR ISLAND     N/A     73 N/A N/A NE12      30.24S
JACKSONVILLE   CLOUDY    72  66  81 N6        30.18S
NEWPORT        NOT AVBL
PINEY ISLAND   CLOUDY    74  63  68 NE13      30.19R
WILMINGTON     CLOUDY    71  66  84 NE10      30.17S


$$

NCZ011>013-027>030-043-044-078>080-089-090>093-098-150000-
COASTAL PLAIN

CITY           SKY/WX    TMP DP  RH WIND       PRES   REMARKS
AHOSKIE        CLOUDY    64  58  82 N3        30.22S
CLINTON        CLOUDY    71  67  87 CALM      30.19F
ELIZABETHTOWN  CLOUDY    68  64  86 CALM      30.19S
GOLDSBORO      CLOUDY    72  68  87 CALM      30.18S
GREENVILLE     CLOUDY    72  61  68 N6        30.21S
HAVELOCK       CLOUDY    73  65  75 NE8       30.20R
KENANSVILLE    CLOUDY    69  65  85 CALM      30.20R
KINSTON        MOCLDY    72  63  73 N5        30.20S
NEW BERN       CLOUDY    75  64  68 E5        30.20S
RICHLANDS      CLOUDY    70  64  83 CALM      30.19S
ROANOKE RAPIDS NOT AVBL
ROCKY MOUNT    CLOUDY    67  61  81 N9        30.21S
WASHINGTON     CLOUDY    70  62  77 CALM      30.20S
WHITEVILLE     CLOUDY    68  64  86 CALM      30.19R

$$

AMZ130-135-150-152-154-156-158-170-250-252-270-ANZ085-086-088-633-658-670-150000-
MARINE OBSERVATIONS

STATION/POSITION TIME  TEMP    WIND        PRES    WAVE   SWELL
                       AIR SEA DIR/SP/G            HT/PER HT/PER
                 (UTC) (F)     (DEG/KT/KT) (MB)    (FT/S) (FT/S)
CHESAPEAKE LIGHT 2300   67      10/  8/  9 1023.5
BUOY 44014       2300   70 80   10/ 12/ 16 1022.0    4/ 7   3/ 7
DUCK             2300   69 77   20/ 13/ 15 1022.4
2E DUCK          2300                        N/A     3/ 7
OREGON INLET     2300   69 77  360/ 10/ 14 1022.8
BUOY 44095       2300      76                N/A     6/ 7
20E OREGON INLET NOT AVBL
HATTERAS CG      2300   72 80   20/ 14/ 18 1022.4
DIAMOND BUOY     2300   74     360/ 17/ 21 1021.1    4/ 7   2/ 7
CAPE LOOKOUT     2300   73      20/ 11/ 13 1021.7
BEAUFORT LAB     2300   73 81   30/  6/ 10 1021.5
30 SE NEW RIVER  2300   76 82   50/ 16/ 19 1021.4    3/ 5   2/ 8
5 SE WRIGHTSVILL 2300   71 82   10/ 14/ 16   N/A
BUOY 41002       2239   79 83  240/  6/  8 1021.1    2/ 5   2/ 5
BUOY 41004       2300   80 83   60/  2/  4 1020.3    2/ 4   2/ 5

$$



USA.gov is the U.S. government's official web portal to all federal, state and local government web resources and services.